Regional Weather Roundup
Issued by NWS

Home | Current Version | Previous Version | Graphics & Text | Print | Product List | Glossary On
Versions: 1 2 3 4 5 6 7 8 9 10 11 12 13 14 15 16 17 18 19 20 21 22 23 24 25 26 27 28 29 30 31 32 33 34 35 36 37 38 39 40 41 42 43 44 45 46 47 48 49 50
000
ASUS43 KLSX 310010
RWRMO

WEATHER SUMMARY FOR MISSOURI
NATIONAL WEATHER SERVICE SPRINGFIELD MO
700 PM CDT SAT JUL 30 2016

NOTE: "FAIR" INDICATES FEW OR NO CLOUDS BELOW 12,000 FEET WITH NO
       SIGNIFICANT WEATHER AND/OR OBSTRUCTIONS TO VISIBILITY.
       CURRENT SKY AND/OR WEATHER CONDITIONS ARE NOT AVAILABLE FOR
       CHILLICOTHE AND FARMINGTON.

MOZ001>031-035>038-043-044-053-054-310100-
...NORTHERN AND WESTERN MISSOURI...

CITY           SKY/WX    TMP DP  RH WIND       PRES   REMARKS
KANSAS CTY INT MOSUNNY   83  64  52 NE9       29.95S
6HR MIN TEMP:  80; 6HR MAX TEMP:  85;

KANSAS C DTWN  SUNNY     85  66  53 E5        29.93R
6HR MIN TEMP:  83; 6HR MAX TEMP:  89; 6HR PCP: TRACE;

LEE`S SUMMIT   SUNNY     83  66  56 E7        29.95S
6HR MIN TEMP:  82; 6HR MAX TEMP:  85; 6HR PCP: TRACE;

ST JOSEPH      CLOUDY    82  66  58 S3        29.94F
6HR MIN TEMP:  75; 6HR MAX TEMP:  83; 6HR PCP:  0.03;

CHILLICOTHE      N/A     84  65  52 VRB3      29.96F
6HR MIN TEMP:  80; 6HR MAX TEMP:  86;

KIRKSVILLE     SUNNY     81  62  52 W5        29.97F
6HR MIN TEMP:  78; 6HR MAX TEMP:  83;


$$
MOZ066>068-077>081-088>096-101>105-310100-
...SOUTHWEST MISSOURI...

CITY           SKY/WX    TMP DP  RH WIND       PRES   REMARKS
SPRINGFIELD    PTSUNNY   84  68  58 NE7       29.96S
6HR MIN TEMP:  83; 6HR MAX TEMP:  87;

JOPLIN         SUNNY     85  68  56 E7        29.94F
6HR MIN TEMP:  83; 6HR MAX TEMP:  87;

BRANSON        PTSUNNY   81  72  74 S6        29.99R

$$
MOZ032>034-039>042-045>050-055>058-069>072-310100-
...CENTRAL MISSOURI...

CITY           SKY/WX    TMP DP  RH WIND       PRES   REMARKS
COLUMBIA       SUNNY     81  64  56 NW3       29.97S
6HR MIN TEMP:  79; 6HR MAX TEMP:  84;

JEFFERSON CITY SUNNY     82  64  54 NW6       29.95S
6HR MIN TEMP:  81; 6HR MAX TEMP:  84;

ROLLA          PTSUNNY   82  65  56 N6        29.95F
6HR MIN TEMP:  81; 6HR MAX TEMP:  85;

SEDALIA        SUNNY     82  67  60 NE8       29.97S
6HR MIN TEMP:  81; 6HR MAX TEMP:  85;

WHITEMAN AFB   SUNNY     83  68  61 E5        29.95R
OSAGE BEACH    CLOUDY    83  69  62 N3        29.96F

$$
MOZ051-052-059>065-310100-
...EAST CENTRAL MISSOURI...

CITY           SKY/WX    TMP DP  RH WIND       PRES   REMARKS
ST LOUIS INTL  MOSUNNY   83  66  56 N8        29.96F
6HR MIN TEMP:  82; 6HR MAX TEMP:  87;

SPIRIT OF STL  MOSUNNY   83  66  56 NW6       29.94F
6HR MIN TEMP:  83; 6HR MAX TEMP:  88;

ST CHARLES     SUNNY     82  67  60 W7        29.94F
6HR MIN TEMP:  81; 6HR MAX TEMP:  85;


$$
MOZ072>076-082>087-097>100-106>115-310100-
...SOUTH CENTRAL AND SOUTHEAST MISSOURI...

CITY           SKY/WX    TMP DP  RH WIND       PRES   REMARKS
CAPE GIRARDEAU MOSUNNY   82  73  74 SW7       29.94R
6HR MIN TEMP:  82; 6HR MAX TEMP:  86;

FARMINGTON     SUNNY     82  66  58 W3        29.97F
6HR MIN TEMP:  82; 6HR MAX TEMP:  86;

POPLAR BLUFF   CLOUDY    83  74  74 S5        29.94R
6HR MIN TEMP:  82; 6HR MAX TEMP:  89;

WEST PLAINS    CLOUDY    83  70  64 E3        29.98F
6HR MIN TEMP:  83; 6HR MAX TEMP:  88;


$$




USA.gov is the U.S. government's official web portal to all federal, state and local government web resources and services.